This demonstration page uses our WeatherBlox Daily Observations layout. Learn more.

Hourly Observations for September 14, 2015

Temp ( °F °C ) Dew Point ( °F °C ) Humidity (%) Winds ( mph kmh ) Pressure ( in mb ) Visibility ( mi km ) Precip ( " mm )
12:15 am 00:15 Clear 70 21.1 57 14 64 64 S 8 13 29.65 1004 10 16.0934 0 0
12:35 am 00:35 Clear 69 20.6 57 14 66 66 S 6 9 29.65 1004 10 16.0934 0 0
12:55 am 00:55 Clear 68 20 57 14.1 69 69 SSE 6 9 29.68 1005 10 16.0934 0 0
1:15 am 01:15 Clear 67 19.2 57 14.1 72 72 SSE 5 7 29.68 1005 10 16.0934 0 0
1:35 am 01:35 Clear 65 18.6 57 14.1 75 75 SSE 7 11 29.68 1005 10 16.0934 0 0
1:55 am 01:55 Clear 65 18.5 58 14.2 76 76 S 6 9 29.68 1005 10 16.0934 0 0
2:15 am 02:15 Clear 64 18 58 14.2 79 79 SSE 6 9 29.68 1005 10 16.0934 0 0
2:35 am 02:35 Clear 64 18 58 14.3 79 79 S 6 9 29.68 1005 10 16.0934 0 0
2:55 am 02:55 Clear 64 17.5 58 14.3 82 82 SSE 7 11 29.68 1005 10 16.0934 0 0
3:15 am 03:15 Clear 64 17.5 58 14.3 82 82 SSE 7 11 29.68 1005 10 16.0934 0 0
3:35 am 03:35 Clear 64 17.8 58 14.5 81 81 SSE 7 11 29.68 1005 10 16.0934 0 0
3:55 am 03:55 Clear 65 18.2 58 14.5 79 79 SSE 6 9 29.68 1005 10 16.0934 0 0
4:15 am 04:15 Clear 64 18 58 14.5 80 80 SSE 7 11 29.68 1005 10 16.0934 0 0
4:35 am 04:35 Clear 64 17.9 58 14.6 81 81 S 3 6 29.68 1005 10 16.0934 0 0
4:55 am 04:55 Clear 64 17.6 58 14.5 82 82 S 5 7 29.68 1005 10 16.0934 0 0
5:15 am 05:15 Clear 64 17.5 58 14.6 83 83 S 6 9 29.68 1005 10 16.0934 0 0
5:35 am 05:35 Clear 64 17.7 58 14.7 83 83 S 9 15 29.68 1005 10 16.0934 0 0
5:55 am 05:55 Clear 64 18 59 14.8 82 82 SSE 9 15 29.68 1005 10 16.0934 0 0
6:15 am 06:15 Clear 64 17.8 59 14.9 83 83 S 12 19 29.68 1005 10 16.0934 0 0
6:35 am 06:35 Clear 64 18 59 15 83 83 S 12 19 29.68 1005 10 16.0934 0 0
6:55 am 06:55 Clear 64 18 59 14.9 82 82 S 9 15 29.68 1005 10 16.0934 0 0
7:15 am 07:15 Clear 64 17.7 59 15 84 84 S 7 11 29.68 1005 10 16.0934 0 0
7:35 am 07:35 Sunny 65 18.2 59 14.8 81 81 S 10 17 29.68 1005 10 16.0934 0 0
7:55 am 07:55 Sunny 65 18.5 58 14.7 79 79 S 8 13 29.68 1005 10 16.0934 0 0
8:15 am 08:15 Sunny 66 18.7 58 14.7 78 78 S 7 11 29.71 1006 10 16.0934 0 0
8:35 am 08:35 Sunny 67 19.3 59 14.8 75 75 S 8 13 29.71 1006 10 16.0934 0 0
8:55 am 08:55 Sunny 68 20.2 59 14.8 71 71 S 7 11 29.71 1006 10 16.0934 0 0
9:15 am 09:15 Sunny 71 21.8 58 14.4 63 63 S 9 15 29.68 1005 10 16.0934 0 0
9:35 am 09:35 Sunny 73 22.9 58 14.2 58 58 S 9 15 29.68 1005 10 16.0934 0 0
9:55 am 09:55 Sunny 75 23.8 57 13.8 54 54 SSW 10 17 29.68 1005 10 16.0934 0 0
10:15 am 10:15 Sunny 76 24.3 56 13.6 51 51 SSW 15 24 29.68 1005 10 16.0934 0 0
10:35 am 10:35 Sunny 77 25.2 56 13.3 48 48 SSW 15 24 29.65 1004 10 16.0934 0 0
10:55 am 10:55 Sunny 78 25.7 56 13.4 47 47 SSW 16 26 29.65 1004 10 16.0934 0 0
11:15 am 11:15 Sunny 80 26.5 56 13.5 45 45 SSW 16 26 29.65 1004 10 16.0934 0 0
11:35 am 11:35 Sunny 81 27.3 56 13.5 43 43 SSW 18 30 29.65 1004 10 16.0934 0 0
11:55 am 11:55 Sunny 82 27.9 56 13.5 41 41 SSW 16 26 29.65 1004 10 16.0934 0 0
12:15 pm 12:15 Sunny 83 28.5 56 13.6 40 40 S 14 22 29.62 1003 10 16.0934 0 0
12:35 pm 12:35 Sunny 85 29.4 57 13.8 38 38 S 12 19 29.62 1003 10 16.0934 0 0
12:55 pm 12:55 Sunny 84 28.8 57 13.9 40 40 S 13 20 29.62 1003 10 16.0934 0 0
1:15 pm 13:15 Sunny 85 29.3 57 13.7 38 38 S 16 26 29.62 1003 10 16.0934 0 0
1:35 pm 13:35 Sunny 87 30.5 56 13.1 34 34 S 12 19 29.62 1003 10 16.0934 0 0
1:55 pm 13:55 Sunny 87 30.5 55 12.9 34 34 S 18 30 29.62 1003 10 16.0934 0 0
2:15 pm 14:15 Sunny 87 30.5 55 13 34 34 S 10 17 29.62 1003 10 16.0934 0 0
2:35 pm 14:35 Sunny 85 29.7 55 12.7 35 35 S 14 22 29.62 1003 10 16.0934 0 0
2:55 pm 14:55 Sunny 87 30.5 55 12.6 33 33 S 16 26 29.62 1003 10 16.0934 0 0
3:15 pm 15:15 Sunny 88 31.2 55 12.5 32 32 S 16 26 29.59 1002 10 16.0934 0 0
3:35 pm 15:35 Sunny 87 30.5 54 12.2 32 32 S 20 31 29.62 1003 10 16.0934 0 0
3:55 pm 15:55 Sunny 90 32.1 54 12.2 30 30 S 17 28 29.56 1001 10 16.0934 0 0
4:15 pm 16:15 Sunny 89 31.9 54 12 30 30 S 20 31 29.56 1001 10 16.0934 0 0
4:35 pm 16:35 Sunny 89 31.5 53 11.9 30 30 S 18 30 29.56 1001 10 16.0934 0 0
4:55 pm 16:55 Sunny 88 31.1 54 12 31 31 SSE 16 26 29.59 1002 10 16.0934 0 0
5:15 pm 17:15 Sunny 88 31.1 54 12.4 32 32 S 18 30 29.59 1002 10 16.0934 0 0
5:35 pm 17:35 Sunny 87 30.6 54 12.3 32 32 S 20 31 29.59 1002 10 16.0934 0 0
5:55 pm 17:55 Sunny 86 30.2 54 12 33 33 SSE 18 30 29.59 1002 10 16.0934 0 0
6:15 pm 18:15 Sunny 86 29.8 54 12.3 34 34 SSE 14 22 29.59 1002 10 16.0934 0 0
6:35 pm 18:35 Sunny 85 29.5 54 12 34 34 S 17 28 29.59 1002 10 16.0934 0 0
6:55 pm 18:55 Sunny 84 28.8 54 12 35 35 S 16 26 29.59 1002 10 16.0934 0 0
7:15 pm 19:15 Sunny 83 28.1 54 12.3 38 38 SSE 13 20 29.62 1003 10 16.0934 0 0
7:35 pm 19:35 Sunny 80 26.7 55 12.6 42 42 SSE 10 17 29.62 1003 10 16.0934 0 0
7:55 pm 19:55 Clear 78 25.5 55 12.8 45 45 SSE 10 17 29.65 1004 10 16.0934 0 0
8:15 pm 20:15 Clear 76 24.5 56 13.1 49 49 SE 9 15 29.65 1004 10 16.0934 0 0
8:35 pm 20:35 Clear 74 23.5 56 13.4 53 53 SE 9 15 29.68 1005 10 16.0934 0 0
8:55 pm 20:55 Clear 74 23.2 56 13.5 55 55 SE 9 15 29.68 1005 10 16.0934 0 0
9:15 pm 21:15 Clear 73 22.5 56 13.6 57 57 SE 8 13 29.68 1005 10 16.0934 0 0
9:35 pm 21:35 Clear 72 22.2 57 14.1 60 60 SE 8 13 29.68 1005 10 16.0934 0 0
9:55 pm 21:55 Clear 71 21.5 58 14.3 64 64 SE 8 13 29.68 1005 10 16.0934 0 0
10:15 pm 22:15 Clear 70 21 58 14.5 67 67 SE 7 11 29.68 1005 10 16.0934 0 0
10:35 pm 22:35 Clear 70 21.2 58 14.6 66 66 SE 9 15 29.68 1005 10 16.0934 0 0
10:55 pm 22:55 Clear 72 22 58 14.3 62 62 SSE 12 19 29.68 1005 10 16.0934 0 0
11:15 pm 23:15 Clear 74 23.1 56 13.5 55 55 SSE 14 22 29.68 1005 10 16.0934 0 0
11:35 pm 23:35 Clear 74 23.2 55 13 53 53 SSE 15 24 29.68 1005 10 16.0934 0 0
11:55 pm 23:55 Clear 74 23.4 55 12.6 51 51 SSE 15 24 29.68 1005 10 16.0934 0 0

Powered by AerisWeather